Wind_Speed
13 16 17 16 18 20 21 20 9 23 23 15 13 8 7 14 18 16 12 7 8 8 8 5 4 6 4 4 1 1 2 0 1 2 6 4 2 3 4 4 4 6 7 15
14 15 18 18 18 19 21 11 12 24 23 12 18 15 13 16 16 13 10 11 10 8 9 4 6 6 5 3 1 1 2 1 3 3 1 2 3 5 6 6 7 12 11 11
14 15 17 20 20 19 20 10 12 21 22 13 13 14 13 17 17 15 13 11 11 10 8 6 8 6 5 4 5 3 1 1 2 7 9 10 11 13 13 13 14 16 20 23
16 15 16 18 20 20 19 13 12 19 21 17 12 12 12 13 16 16 12 11 9 10 7 7 6 6 6 6 5 4 2 2 5 9 12 13 15 17 17 19 20 23 24 22
18 16 15 17 19 19 20 14 15 19 11 16 14 14 13 14 13 12 13 9 12 9 6 4 8 5 4 3 4 3 5 4 10 14 11 14 18 21 19 18 14 18 18 18
20 18 17 17 18 19 19 19 17 16 19 18 15 14 14 13 14 14 9 12 11 13 9 10 9 9 9 7 4 5 6 4 7 7 15 24 10 2 4 9 11 13 14 17
21 20 19 18 18 17 16 17 16 17 18 17 15 15 13 14 12 12 14 11 12 12 10 9 9 8 8 8 8 8 7 6 6 8 10 3 3 14 18 15 11 11 13 13
22 20 20 18 17 17 16 15 15 16 16 20 19 16 16 17 15 11 15 13 10 10 10 8 5 6 6 8 8 8 7 7 4 3 8 19 12 3 4 13 14 15 10 11
22 22 19 19 18 16 15 16 16 15 15 19 19 17 16 18 17 15 14 13 11 11 10 8 6 4 4 4 4 7 8 9 6 6 4 4 5 9 15 11 20 16 15 26
23 21 20 19 18 17 16 14 15 17 17 16 18 19 19 16 15 13 15 14 13 12 11 10 9 6 7 4 6 5 8 10 12 9 10 11 12 17 11 9 12 18 32 36
25 22 21 21 20 19 17 16 14 15 16 15 19 20 18 17 18 16 17 15 16 16 14 11 10 9 9 8 6 8 7 6 7 6 7 8 6 11 17 22 24 28 35 34
28 25 23 22 21 20 18 17 16 15 16 11 15 16 17 19 20 17 16 16 11 12 12 14 10 11 9 10 5 7 8 13 8 10 12 17 23 25 26 26 27 34 36 29
29 27 25 23 22 21 20 18 17 17 16 15 15 17 17 17 17 17 19 19 20 18 19 16 17 17 16 16 16 14 18 15 24 19 21 21 23 24 30 30 32 31 30 31
30 29 27 25 23 21 20 19 18 17 17 18 17 17 20 19 19 19 19 21 19 21 22 24 24 23 20 23 20 20 24 16 22 27 28 26 22 25 29 28 25 29 31 27
30 30 29 28 25 24 22 21 21 19 19 12 18 22 21 19 19 20 21 21 22 22 23 26 25 26 27 33 31 34 29 24 23 29 26 34 29 31 33 26 27 25 24 26
30 29 29 29 27 25 24 24 24 22 21 23 23 20 20 19 21 23 24 24 25 24 27 28 27 26 24 23 32 39 27 25 24 27 33 32 31 37 22 25 24 23 26 27
31 30 29 29 28 27 28 26 25 24 23 24 24 25 29 26 25 25 26 26 30 28 30 32 31 30 27 33 39 33 27 31 28 27 30 30 25 19 23 21 23 26 27 28
32 31 31 29 29 29 28 27 26 22 22 25 18 17 20 22 24 25 27 30 30 33 33 34 33 29 29 33 38 34 30 26 24 28 17 17 22 21 19 20 24 27 32 37
31 31 29 30 33 33 29 26 26 27 27 23 28 31 27 24 24 20 20 23 25 27 29 31 29 31 28 31 26 28 27 26 26 23 24 24 19 18 21 24 27 33 40 42
36 34 34 35 37 32 27 27 27 30 34 36 40 35 29 24 19 20 22 22 18 19 25 24 27 37 33 29 28 26 26 25 21 23 20 17 18 21 24 28 34 39 40 40
37 38 42 40 38 33 30 27 24 27 29 36 44 43 32 30 24 22 20 19 12 12 19 18 14 28 25 19 19 20 21 20 18 16 16 17 20 25 29 34 38 38 39 38
40 44 42 34 32 22 23 19 19 19 25 28 29 31 31 34 34 32 28 25 11 10 13 10 11 21 16 14 16 17 17 17 16 16 17 20 25 29 33 35 36 37 36 34
29 40 35 30 19 15 12 19 25 28 24 25 26 25 22 30 32 27 17 11 10 9 8 8 10 19 18 16 13 15 17 17 16 17 21 25 29 33 33 34 34 35 33 32
18 16 17 14 7 10 11 17 21 26 26 23 20 21 27 27 25 11 8 9 7 6 6 10 15 17 15 15 14 13 15 16 17 21 26 29 32 31 32 33 34 32 31 28
12 8 6 6 6 8 11 14 14 15 16 17 21 25 13 11 7 7 6 4 6 6 5 11 10 12 12 11 11 15 15 18 21 27 31 31 31 32 33 33 31 31 30 28
5 3 7 12 12 11 11 11 11 13 12 12 9 6 3 6 5 5 8 5 4 9 16 15 11 9 11 13 15 15 18 24 29 32 31 31 32 33 33 32 30 31 30 29
5 7 6 8 6 11 10 4 7 8 8 8 6 3 7 4 6 7 10 17 21 21 16 14 14 12 14 16 18 22 28 31 31 30 31 33 33 33 32 31 30 30 30 31
Wind_Direction
170 173 169 162 165 170 171 171 172 175 168 166 181 202 195 181 178 184 184 153 155 173 160 156 153 167 179 175 98 58 342 35 266 290 292 285 297 295 297 287 291 261 276 282
171 175 174 167 164 168 166 160 200 178 175 197 191 197 198 181 182 184 194 203 190 178 165 160 150 176 191 202 198 199 339 342 303 230 314 352 298 280 271 266 263 257 261 269
174 173 179 178 172 172 175 161 168 182 188 182 199 197 191 197 199 199 204 204 193 186 180 175 176 194 212 241 266 268 291 271 267 298 306 301 291 283 279 266 263 274 275 286
178 174 178 184 184 183 184 176 179 187 203 198 185 188 196 193 202 206 198 197 187 181 161 153 164 183 240 249 252 269 211 244 284 285 298 301 292 284 279 269 271 268 282 285
185 178 177 183 187 191 195 193 195 199 201 196 188 201 194 185 195 191 197 184 174 175 195 184 194 191 203 236 267 222 282 276 306 315 310 313 298 289 279 272 269 275 281 285
191 189 183 185 187 194 203 206 209 210 210 203 197 201 191 188 198 202 178 175 166 169 165 202 213 221 235 239 223 252 275 289 316 288 318 317 320 44 303 286 285 282 278 295
197 198 195 195 196 199 204 208 208 210 210 207 200 200 197 188 186 198 178 163 192 209 213 216 222 236 252 254 255 252 273 277 295 285 327 308 319 293 292 282 293 292 286 292
203 204 205 204 205 208 208 205 208 208 208 201 201 197 179 202 202 202 209 212 210 209 208 219 234 240 259 256 251 249 245 267 282 263 290 291 313 243 282 316 299 298 268 265
206 209 210 211 209 211 211 209 210 207 206 205 206 201 203 205 208 209 209 212 212 210 212 214 212 214 197 193 254 244 255 254 256 276 259 269 302 298 294 306 294 252 280 293
210 211 212 216 213 212 213 212 211 212 211 208 202 208 203 200 210 213 216 216 215 219 223 222 220 225 204 216 215 256 252 256 256 239 254 269 289 265 282 293 294 289 296 306
216 217 215 217 218 216 214 214 213 216 216 213 213 219 222 221 218 225 224 218 224 228 228 230 228 224 220 232 229 285 276 261 256 227 251 281 274 283 278 295 290 298 306 312
219 219 218 217 218 217 217 217 218 219 219 221 217 219 222 222 218 218 224 220 232 222 226 228 223 228 236 257 251 244 259 250 253 245 265 285 298 286 296 288 292 306 310 310
219 220 219 217 218 218 220 220 221 222 225 227 225 222 226 228 230 236 239 242 246 250 245 240 247 251 261 260 268 267 279 267 263 276 285 293 286 280 288 286 302 312 315 317
218 221 219 216 217 220 221 223 225 226 231 232 236 232 236 238 238 241 245 249 250 250 249 253 255 258 267 264 267 266 287 281 275 279 285 291 281 280 297 285 305 311 316 318
215 218 219 216 215 218 222 224 226 226 223 235 241 242 241 241 243 246 249 252 253 254 255 255 259 262 262 272 275 275 290 288 276 286 288 284 287 257 296 319 304 312 317 316
216 216 218 219 218 218 223 228 228 229 232 238 244 252 245 243 245 249 252 252 252 257 261 262 262 262 262 266 269 282 283 287 283 271 283 291 282 288 308 307 310 315 314 311
219 219 220 222 224 224 223 227 234 233 236 239 245 254 248 248 248 251 253 257 258 259 262 262 262 263 262 265 270 284 282 292 294 291 292 291 285 296 304 308 312 312 314 316
221 222 224 225 227 229 230 232 235 235 235 239 238 240 243 249 247 248 250 254 257 258 258 261 265 263 257 262 279 286 288 290 290 296 283 297 308 305 310 309 308 307 315 318
221 224 228 230 232 232 231 234 235 236 234 234 240 243 252 251 246 240 242 249 252 256 257 262 264 263 253 271 277 285 286 290 291 285 302 305 295 296 296 298 306 314 318 320
224 221 222 230 233 233 228 232 233 237 240 242 244 246 240 245 244 243 242 244 246 252 264 264 257 261 266 276 276 279 280 281 283 285 284 282 290 295 301 306 313 316 316 315
214 215 212 224 232 233 232 235 230 231 238 247 246 243 242 239 236 229 233 243 242 247 257 234 252 261 278 279 274 274 274 274 275 274 277 289 297 303 307 310 312 312 313 315
214 210 215 212 199 199 201 199 200 217 229 235 240 246 242 239 239 240 243 232 227 235 233 218 250 271 281 277 278 273 269 270 271 276 289 295 299 301 305 309 311 312 315 317
228 224 219 215 211 212 197 189 200 209 215 229 233 231 221 229 228 222 220 209 218 219 224 229 246 272 285 278 268 260 259 263 273 285 289 294 299 305 307 309 312 313 314 315
227 215 206 211 207 204 195 200 214 217 225 224 220 213 205 209 207 201 201 213 213 229 229 261 267 278 276 271 254 244 254 269 279 287 294 300 303 304 308 311 311 309 309 311
204 192 202 191 199 186 175 181 187 193 183 176 184 195 197 184 179 195 205 214 220 223 237 257 277 271 260 243 250 255 267 280 291 297 300 302 303 307 310 309 308 306 307 308
217 197 137 149 146 152 163 163 163 167 172 165 171 175 199 207 206 206 200 205 216 260 284 283 275 259 262 262 258 269 283 294 298 301 302 303 305 306 308 307 306 306 305 304
129 146 133 150 135 140 145 144 134 135 141 188 198 198 212 223 223 217 241 258 268 272 273 277 285 283 275 272 276 290 296 298 300 301 301 303 305 305 306 304 305 307 309 309
Height
3092 3095 3098 3100 3104 3107 3112 3115 3120 3120 3124 3130 3131 3134 3133 3134 3136 3138 3140 3143 3144 3146 3146 3148 3149 3151 3150 3150 3150 3153 3151 3152 3154 3155 3151 3151 3153 3154 3154 3154 3153 3153 3153 3147
3092 3095 3098 3101 3104 3108 3112 3117 3117 3120 3124 3128 3128 3130 3132 3133 3136 3138 3140 3140 3142 3144 3146 3147 3148 3148 3149 3149 3150 3151 3151 3153 3153 3151 3152 3152 3152 3152 3152 3152 3151 3149 3149 3145
3092 3095 3098 3101 3104 3109 3113 3117 3118 3121 3123 3125 3129 3130 3131 3133 3134 3136 3138 3140 3142 3143 3145 3146 3146 3147 3148 3149 3149 3149 3150 3153 3154 3154 3153 3152 3151 3150 3149 3149 3147 3145 3142 3139
3092 3094 3097 3101 3104 3108 3112 3115 3117 3118 3121 3124 3127 3130 3131 3132 3133 3135 3138 3140 3142 3143 3144 3146 3146 3148 3147 3147 3148 3148 3150 3151 3151 3150 3149 3149 3147 3145 3143 3142 3141 3140 3137 3136
3091 3094 3097 3100 3103 3107 3111 3113 3116 3118 3120 3122 3126 3126 3130 3132 3132 3135 3137 3140 3141 3143 3143 3145 3145 3147 3148 3148 3146 3148 3148 3149 3147 3146 3146 3144 3141 3138 3137 3136 3136 3134 3133 3132
3090 3094 3097 3100 3103 3106 3108 3111 3114 3117 3118 3121 3124 3126 3128 3131 3130 3134 3136 3138 3139 3140 3141 3142 3142 3143 3144 3145 3146 3146 3147 3146 3146 3144 3142 3138 3134 3133 3134 3134 3133 3132 3130 3129
3089 3093 3096 3099 3102 3105 3107 3110 3113 3115 3116 3119 3122 3124 3126 3128 3130 3132 3134 3136 3136 3138 3139 3140 3141 3142 3142 3142 3143 3144 3144 3144 3144 3142 3141 3139 3134 3133 3130 3130 3129 3128 3126 3124
3087 3091 3095 3098 3101 3103 3106 3108 3111 3113 3115 3117 3119 3122 3124 3126 3129 3130 3131 3133 3135 3136 3138 3140 3140 3140 3141 3140 3140 3141 3141 3141 3142 3141 3140 3135 3130 3127 3126 3124 3123 3123 3120 3117
3085 3089 3093 3096 3099 3101 3104 3106 3109 3111 3114 3115 3118 3120 3123 3124 3126 3128 3130 3131 3133 3135 3136 3137 3137 3138 3139 3140 3138 3138 3138 3139 3141 3138 3138 3133 3128 3126 3122 3122 3120 3115 3114 3111
3082 3086 3090 3094 3097 3100 3102 3105 3107 3110 3111 3113 3116 3118 3120 3123 3125 3127 3128 3129 3131 3132 3133 3134 3135 3136 3136 3137 3136 3134 3136 3135 3135 3134 3133 3127 3124 3120 3120 3121 3120 3112 3109 3105
3079 3084 3087 3091 3095 3097 3100 3103 3105 3107 3109 3111 3113 3116 3118 3120 3122 3123 3125 3128 3127 3129 3131 3132 3131 3131 3131 3132 3133 3131 3132 3132 3130 3129 3128 3123 3119 3118 3116 3114 3109 3105 3100 3097
3076 3080 3084 3088 3091 3095 3098 3100 3102 3105 3107 3110 3111 3113 3115 3117 3118 3120 3121 3123 3124 3125 3125 3127 3127 3127 3127 3127 3129 3129 3129 3127 3127 3126 3122 3121 3117 3112 3108 3104 3102 3099 3094 3090
3072 3076 3080 3084 3088 3092 3095 3098 3100 3102 3105 3106 3108 3109 3112 3113 3115 3117 3119 3119 3120 3121 3122 3122 3123 3124 3123 3122 3121 3123 3122 3122 3117 3117 3114 3113 3109 3106 3101 3098 3095 3089 3086 3083
3068 3072 3077 3081 3085 3088 3091 3094 3097 3100 3102 3102 3103 3105 3107 3109 3111 3112 3113 3114 3116 3116 3117 3116 3117 3118 3117 3114 3117 3116 3117 3115 3111 3107 3107 3104 3103 3097 3095 3089 3087 3084 3080 3077
3063 3068 3073 3076 3080 3084 3087 3090 3093 3095 3099 3097 3099 3101 3102 3104 3105 3107 3108 3109 3110 3111 3111 3110 3112 3111 3112 3106 3106 3105 3108 3106 3105 3100 3099 3095 3094 3089 3087 3083 3080 3077 3075 3072
3059 3064 3068 3072 3076 3079 3083 3085 3088 3090 3092 3094 3095 3096 3096 3098 3100 3101 3103 3103 3104 3105 3103 3104 3103 3104 3105 3099 3095 3097 3098 3098 3096 3093 3089 3087 3085 3083 3080 3077 3074 3072 3070 3067
3056 3060 3063 3067 3071 3074 3077 3080 3083 3085 3088 3089 3090 3088 3089 3092 3094 3095 3096 3097 3096 3098 3097 3093 3095 3096 3096 3089 3086 3090 3089 3087 3086 3083 3081 3078 3077 3075 3073 3072 3069 3066 3064 3060
3051 3055 3058 3062 3065 3068 3071 3074 3077 3080 3083 3084 3083 3080 3083 3086 3085 3087 3088 3088 3089 3088 3087 3086 3087 3087 3086 3079 3079 3081 3080 3078 3077 3075 3073 3072 3071 3069 3067 3065 3063 3060 3057 3052
3046 3050 3053 3056 3057 3060 3065 3068 3071 3074 3078 3075 3072 3074 3077 3077 3079 3081 3082 3082 3082 3080 3079 3079 3080 3075 3072 3073 3074 3073 3072 3071 3069 3068 3067 3066 3066 3064 3063 3060 3057 3053 3048 3043
3040 3043 3046 3046 3048 3055 3062 3062 3064 3065 3065 3065 3064 3066 3069 3073 3074 3075 3078 3076 3076 3072 3071 3071 3066 3061 3064 3067 3067 3066 3066 3065 3064 3063 3062 3061 3060 3059 3056 3053 3049 3044 3040 3035
3029 3033 3036 3037 3043 3049 3053 3054 3055 3056 3055 3052 3052 3055 3061 3064 3067 3069 3070 3067 3067 3065 3063 3064 3057 3052 3059 3059 3058 3058 3058 3058 3058 3057 3056 3056 3054 3051 3048 3045 3042 3036 3031 3026
3025 3027 3030 3035 3034 3037 3040 3040 3042 3041 3043 3041 3041 3046 3054 3055 3059 3061 3060 3060 3059 3057 3055 3055 3048 3049 3051 3052 3052 3052 3052 3052 3051 3051 3051 3049 3047 3044 3041 3038 3033 3028 3023 3018
3019 3021 3024 3023 3023 3024 3023 3024 3026 3028 3027 3030 3034 3040 3046 3048 3051 3050 3051 3050 3050 3049 3048 3045 3046 3045 3046 3046 3046 3047 3047 3046 3046 3045 3044 3043 3040 3037 3033 3029 3025 3019 3015 3011
3015 3015 3016 3017 3015 3016 3016 3018 3019 3022 3024 3028 3031 3036 3041 3041 3042 3043 3043 3044 3044 3043 3042 3041 3042 3042 3042 3042 3042 3042 3042 3042 3041 3040 3038 3035 3032 3029 3024 3020 3015 3011 3008 3005
3012 3012 3012 3012 3012 3014 3015 3018 3019 3020 3022 3025 3029 3032 3034 3034 3036 3037 3039 3039 3039 3038 3039 3039 3039 3039 3038 3038 3039 3038 3037 3035 3034 3032 3029 3027 3023 3020 3016 3012 3008 3004 3000 2997
3011 3011 3012 3013 3015 3015 3017 3018 3019 3020 3022 3025 3027 3030 3032 3033 3034 3034 3034 3036 3035 3036 3036 3036 3035 3035 3035 3035 3034 3033 3032 3030 3027 3024 3020 3017 3014 3011 3007 3004 3000 2996 2993 2989
3009 3011 3012 3014 3016 3016 3018 3019 3020 3021 3024 3026 3028 3030 3031 3032 3032 3032 3033 3034 3034 3033 3032 3032 3031 3031 3031 3030 3029 3027 3025 3022 3018 3015 3012 3009 3006 3002 2999 2995 2992 2987 2984 2981